[[{"header":{"parameterUnit":"m.s-1","parameterCategory":1,"la1":30.2991,"la2":30.254,"lo1":-89.0895,"lo2":-89.0444,"dy":0.0017,"dx":0.0017,"nx":28,"ny":28,"refTime":"2024-05-25T03:00:00:Z","depth":0,"parameterNumber":2,"parameterNumberName":"U-component_of_WINDS"},"data":[0,0,0,0,0,0,0,0,0,0,0,0,0,0,0,0,0,0,0,0,0,0,0,0,0,0,0,0,0,0,0,0,0,0,0,0,0,0,0,0,0,0,0,0,0,0,0,0,0,0,0,0,0,0,0,0,0,0,0.3818,0.3819,0,0.3881,0.3882,0.3883,0.39,0.39,0.39,0.3899,0.3964,0.3966,0.3968,0,0,0,0,0,0,0,0,0,0,0,0,0,0.3713,0.3715,0.3818,0.3819,0.382,0.3881,0.3882,0.3883,0.3901,0.39,0.39,0.3899,0.3963,0.3965,0.3968,0,0,0,0,0,0,0,0,0,0,0,0,0,0.3765,0.3715,0.3818,0.3836,0.3838,0.3881,0.3882,0.3883,0.3901,0.39,0.39,0.3899,0.3962,0.3965,0.3968,0.3998,0,0,0.3978,0.3979,0,0,0,0,0,0,0,0,0.3762,0.3769,0.3833,0.3835,0.3837,0.3882,0.3868,0.3921,0.3901,0.3877,0.3899,0.3899,0.3937,0.3942,0.3955,0.4001,0.4003,0.3978,0.398,0.3981,0.3982,0,0,0,0,0,0,0,0.3759,0.3767,0.3843,0.3833,0.3836,0.3841,0.3848,0.3879,0.3909,0.3879,0.388,0.3888,0.3938,0.3952,0.3957,0.4004,0.3978,0.3981,0.3982,0.3984,0.4077,0.4078,0,0,0,0,0,0,0.3752,0.3764,0.3841,0.3845,0.3798,0.3843,0.3851,0.3869,0.3909,0.3915,0.3888,0.3888,0.3947,0.3953,0.3959,0.3996,0.3981,0.3984,0.3986,0.4076,0.4077,0.4078,0,0,0,0,0,0,0.375,0.3759,0.3839,0.3805,0.3815,0.3845,0.3865,0.387,0.3884,0.3916,0.3921,0.3897,0.3947,0.3955,0.3988,0.3999,0.3985,0.3988,0.4076,0.4077,0.4077,0.407,0,0,0,0,0,0,0.3747,0.3758,0.3769,0.3805,0.3817,0.3866,0.3866,0.3872,0.3889,0.389,0.3925,0.3931,0.3947,0.3983,0.3991,0.4003,0.399,0.4075,0.4076,0.4077,0.407,0.4071,0.4072,0,0,0,0,0,0.3743,0.3765,0.377,0.3779,0.3832,0.3867,0.3874,0.3893,0.389,0.3902,0.3922,0.3929,0.3996,0.3986,0.3995,0.4008,0.4074,0.4076,0.4077,0.4069,0.4071,0.4072,0,0,0,0,0,0,0.373,0.377,0.3776,0.381,0.3835,0.387,0.3885,0.3894,0.392,0.3919,0.3942,0.3949,0.3981,0.3998,0.3986,0.4038,0.4035,0.4039,0.4026,0.4028,0.4029,0.4024,0.3993,0,0,0,0,0,0.3731,0.3756,0.379,0.3817,0.3829,0.3855,0.3871,0.3883,0.391,0.392,0.3943,0.3969,0.3995,0.4013,0.4039,0.4072,0.408,0.4085,0.4086,0.4087,0.409,0.4108,0.4111,0.4083,0.4083,0.4082,0,0,0.3734,0.3759,0.3773,0.3815,0.3835,0.3861,0.3864,0.389,0.391,0.3924,0.3957,0.3975,0.4005,0.4038,0.4054,0.4053,0.4099,0.4089,0.4089,0.4092,0.411,0.4113,0.4115,0.4084,0.4083,0.4083,0,0,0.3751,0.3773,0.3798,0.3818,0.385,0.3867,0.3873,0.3907,0.3919,0.3952,0.3964,0.3986,0.4032,0.4053,0.4069,0.4095,0.4102,0.4103,0.4109,0.4127,0.4129,0.4131,0.414,0.4143,0.4105,0.4105,0.4105,0,0.3751,0.379,0.3809,0.3836,0.3853,0.3868,0.3893,0.3912,0.3951,0.3963,0.3961,0.4019,0.404,0.4078,0.4084,0.4097,0.4105,0.4099,0.4127,0.4129,0.4131,0.414,0.4144,0.4105,0.4105,0.4105,0.4105,0,0.3787,0.3814,0.383,0.3867,0.3886,0.3912,0.3935,0.3953,0.3963,0.3981,0.4014,0.404,0.4072,0.4082,0.4092,0.4122,0.412,0.4122,0.412,0.4134,0.4142,0.4146,0.4105,0.4105,0.4105,0.4105,0,0,0.3798,0.3846,0.3851,0.3868,0.3904,0.3925,0.3951,0.3982,0.3997,0.4022,0.4045,0.4083,0.4085,0.4104,0.4117,0.4133,0.4151,0.4134,0.4135,0.4136,0.4185,0.4183,0.4187,0.4157,0.4157,0.4158,0.4182,0,0.382,0.3868,0.3886,0.3925,0.395,0.3964,0.3987,0.4011,0.4028,0.4051,0.407,0.4097,0.4098,0.4109,0.4125,0.4146,0.4161,0.4144,0.4178,0.4179,0.417,0.4191,0.4189,0.4211,0.4186,0.4187,0.4187,0,0.3853,0.3879,0.392,0.3953,0.3964,0.3984,0.4014,0.4036,0.4064,0.4075,0.4096,0.4108,0.4136,0.4131,0.417,0.4157,0.4172,0.4184,0.4185,0.4189,0.4184,0.4195,0.4218,0.4222,0.4193,0.4192,0.4192,0,0.3857,0.3903,0.3933,0.3947,0.3986,0.4,0.4016,0.4044,0.4061,0.4087,0.4099,0.4128,0.4144,0.4166,0.4185,0.418,0.4222,0.4219,0.4232,0.4231,0.424,0.4239,0.4266,0.4249,0.4249,0.4249,0.4249,0,0.388,0.3904,0.3935,0.3954,0.3982,0.4003,0.403,0.4048,0.4072,0.4094,0.4108,0.4129,0.4153,0.4177,0.4192,0.4222,0.4229,0.4238,0.4242,0.4237,0.4236,0.4247,0.4246,0.425,0.425,0.425,0.425,0,0.3889,0.3911,0.3945,0.3979,0.3988,0.4007,0.4036,0.4055,0.4072,0.41,0.4108,0.4135,0.4164,0.4185,0.4222,0.4233,0.4264,0.4268,0.4255,0.4257,0.4268,0.4267,0.4303,0.4309,0.4288,0.4289,0.4289,0,0.3902,0.3921,0.3957,0.3973,0.399,0.4016,0.4034,0.4055,0.4073,0.4106,0.4121,0.415,0.4175,0.422,0.4243,0.4272,0.4276,0.4287,0.4281,0.4275,0.4276,0.4275,0.4277,0.4288,0.4288,0.4288,0.4288,0,0.3923,0.3933,0.3958,0.3988,0.4009,0.4033,0.4057,0.4069,0.4095,0.4114,0.4144,0.4163,0.4201,0.423,0.4261,0.4278,0.4287,0.429,0.4294,0.4289,0.4281,0.4285,0.4257,0.4289,0.4289,0.4289,0.4289,0.4289,0.3934,0.3952,0.398,0.4008,0.4029,0.4051,0.407,0.409,0.4115,0.4148,0.4159,0.4189,0.4216,0.4258,0.4276,0.43,0.43,0.4306,0.4308,0.4309,0.4309,0.4277,0.4306,0.4306,0.4306,0.4306,0.4306,0,0.3956,0.3975,0.4,0.4034,0.4056,0.4063,0.409,0.4108,0.4134,0.4159,0.4183,0.4217,0.4245,0.427,0.43,0.4314,0.4319,0.4321,0.432,0.4324,0.4307,0.43,0.4317,0.4317,0.4317,0.4317,0.4317,0.4317,0.397,0.4,0.4013,0.4054,0.4073,0.4103,0.4118,0.4138,0.4158,0.4195,0.4219,0.4235,0.426,0.4291,0.4318,0.4324,0.4334,0.4335,0.4343,0.4327,0.4325,0.4324,0.4318,0.4337,0.4337,0.4358,0.4358,0.4358]},{"header":{"parameterUnit":"m.s-1","parameterCategory":1,"la1":30.2991,"la2":30.254,"lo1":-89.0895,"lo2":-89.0444,"dy":0.0017,"dx":0.0017,"nx":28,"ny":28,"refTime":"2024-05-25T03:00:00:Z","depth":0,"parameterNumber":3,"parameterNumberName":"V-component_of_WINDS"},"data":[0,0,0,0,0,0,0,0,0,0,0,0,0,0,0,0,0,0,0,0,0,0,0,0,0,0,0,0,0,0,0,0,0,0,0,0,0,0,0,0,0,0,0,0,0,0,0,0,0,0,0,0,0,0,0,0,0,0,2.6802,2.6803,0,2.6843,2.6844,2.6844,2.6834,2.6833,2.6832,2.6831,2.6871,2.6872,2.6874,0,0,0,0,0,0,0,0,0,0,0,0,0,2.6713,2.6714,2.6802,2.6803,2.6803,2.6843,2.6844,2.6844,2.6834,2.6833,2.6832,2.6831,2.687,2.6872,2.6874,0,0,0,0,0,0,0,0,0,0,0,0,0,2.6752,2.6715,2.6802,2.6803,2.6803,2.6843,2.6844,2.6845,2.6834,2.6833,2.6831,2.683,2.6869,2.6872,2.6875,2.6915,0,0,2.6883,2.6884,0,0,0,0,0,0,0,0,2.675,2.6756,2.6802,2.6803,2.6804,2.6832,2.6827,2.6868,2.6834,2.6822,2.6831,2.683,2.6859,2.6862,2.6872,2.6917,2.6919,2.6883,2.6885,2.6886,2.6887,0,0,0,0,0,0,0,2.6747,2.6754,2.6819,2.6803,2.6804,2.68,2.6805,2.6834,2.6847,2.6823,2.6823,2.6828,2.6859,2.687,2.6873,2.6919,2.6883,2.6885,2.6887,2.6888,2.7,2.7002,0,0,0,0,0,0,2.6744,2.6752,2.6817,2.682,2.6773,2.6803,2.6808,2.6824,2.6846,2.6849,2.6829,2.6827,2.6866,2.687,2.6874,2.6924,2.6886,2.6888,2.689,2.6999,2.7001,2.7002,0,0,0,0,0,0,2.6743,2.675,2.6816,2.6786,2.6794,2.6806,2.6824,2.6826,2.6837,2.685,2.6852,2.6838,2.6865,2.6871,2.6906,2.6926,2.689,2.6892,2.6997,2.6999,2.7001,2.7024,0,0,0,0,0,0,2.674,2.675,2.6766,2.6786,2.6795,2.6847,2.6825,2.6827,2.6842,2.684,2.686,2.6862,2.6864,2.6902,2.6908,2.6929,2.6894,2.6996,2.6998,2.7001,2.7022,2.7027,2.7031,0,0,0,0,0,2.6737,2.677,2.6767,2.6775,2.6816,2.6848,2.6853,2.6856,2.6843,2.686,2.6868,2.6861,2.6922,2.6905,2.6913,2.6934,2.6994,2.6997,2.7,2.702,2.7026,2.7031,0,0,0,0,0,0,2.6751,2.6773,2.6769,2.681,2.6828,2.6846,2.6867,2.6863,2.6883,2.6881,2.6883,2.6887,2.6923,2.6932,2.6913,2.6975,2.6956,2.6961,2.6968,2.6974,2.6979,2.6976,2.6896,0,0,0,0,0,2.6759,2.6785,2.6801,2.6836,2.6845,2.6854,2.6868,2.6869,2.6887,2.6894,2.6905,2.6922,2.6945,2.696,2.6982,2.7023,2.7027,2.7041,2.7046,2.7049,2.7054,2.7077,2.7083,2.7012,2.7012,2.7012,0,0,2.6776,2.6791,2.6807,2.6839,2.6853,2.6878,2.686,2.6888,2.6907,2.6898,2.6932,2.6941,2.6959,2.6998,2.7015,2.7006,2.7074,2.7053,2.7056,2.7059,2.708,2.7087,2.7093,2.7014,2.7014,2.7013,0,0,2.682,2.6834,2.6864,2.6878,2.6899,2.6905,2.6913,2.6932,2.6938,2.6972,2.6966,2.6988,2.7027,2.7041,2.7053,2.7102,2.7096,2.7109,2.7134,2.7156,2.7162,2.7167,2.7185,2.7191,2.7113,2.7113,2.7113,0,2.6838,2.6877,2.688,2.6909,2.6923,2.6917,2.6948,2.6961,2.6987,2.6997,2.6987,2.7037,2.7049,2.709,2.7102,2.7112,2.712,2.7107,2.7161,2.7166,2.717,2.7188,2.7194,2.7114,2.7114,2.7114,2.7114,0,2.6899,2.6925,2.6947,2.6975,2.6991,2.7021,2.7028,2.7044,2.7044,2.7051,2.7086,2.71,2.7125,2.7134,2.7133,2.7176,2.717,2.716,2.7141,2.7179,2.7195,2.7201,2.7117,2.7116,2.7116,2.7115,0,0,2.6953,2.6982,2.699,2.7003,2.7025,2.7046,2.7074,2.7099,2.7114,2.7132,2.7156,2.719,2.7181,2.7195,2.7195,2.7215,2.7253,2.7202,2.7203,2.7212,2.7302,2.731,2.7317,2.7249,2.725,2.7251,2.73,0,2.7,2.7052,2.7056,2.7102,2.7127,2.7122,2.7147,2.7163,2.717,2.7191,2.7199,2.7223,2.7209,2.7217,2.7236,2.7245,2.7271,2.7241,2.7272,2.7273,2.7268,2.7326,2.7334,2.738,2.7307,2.7308,2.7308,0,2.7061,2.7083,2.7132,2.7152,2.7162,2.7185,2.7209,2.7229,2.7247,2.7251,2.7266,2.7264,2.7293,2.7273,2.7313,2.7292,2.7305,2.7311,2.7312,2.7316,2.7294,2.7332,2.7394,2.7402,2.7318,2.7318,2.7317,0,2.7097,2.7138,2.7173,2.7184,2.7207,2.7223,2.7234,2.7251,2.7266,2.7286,2.7295,2.7318,2.7331,2.7348,2.7352,2.7337,2.7392,2.7372,2.7396,2.7396,2.7409,2.7408,2.7475,2.7415,2.7415,2.7415,2.7415,0,2.715,2.718,2.719,2.7212,2.7246,2.7249,2.7283,2.7292,2.7307,2.733,2.7325,2.7347,2.735,2.7372,2.7375,2.7408,2.7413,2.7417,2.7418,2.7418,2.7418,2.7427,2.7424,2.7417,2.7417,2.7416,2.7416,0,2.7196,2.7204,2.7242,2.7261,2.7267,2.7291,2.7307,2.7327,2.7334,2.7363,2.737,2.738,2.7406,2.7411,2.7441,2.7443,2.7483,2.7479,2.7477,2.7477,2.7501,2.7499,2.7577,2.7588,2.752,2.7521,2.7521,0,2.723,2.7253,2.7275,2.7291,2.7302,2.7327,2.7343,2.7346,2.7363,2.7385,2.7403,2.7428,2.7449,2.749,2.7499,2.7522,2.752,2.7546,2.7524,2.7524,2.7522,2.7521,2.7524,2.7551,2.7551,2.7552,2.7553,0,2.7288,2.7291,2.7314,2.7339,2.7358,2.7377,2.7395,2.7408,2.7414,2.7433,2.7459,2.7475,2.7507,2.7532,2.7555,2.7565,2.756,2.7559,2.7566,2.7568,2.7566,2.7568,2.749,2.7558,2.7557,2.7557,2.7557,2.7556,2.733,2.7351,2.737,2.7396,2.741,2.7428,2.7448,2.7457,2.748,2.7507,2.7507,2.7536,2.7553,2.7584,2.7595,2.7618,2.7609,2.7619,2.7622,2.7625,2.7627,2.7561,2.7622,2.7621,2.7621,2.7621,2.7621,0,2.7389,2.7401,2.7425,2.7451,2.7472,2.7466,2.7486,2.7503,2.7529,2.7546,2.7567,2.7597,2.7622,2.7633,2.7657,2.7673,2.7672,2.7679,2.7679,2.7681,2.7633,2.7625,2.768,2.768,2.768,2.768,2.768,2.768,2.7423,2.7458,2.7463,2.7506,2.7517,2.7547,2.7559,2.7574,2.7588,2.7623,2.7644,2.7651,2.7666,2.7691,2.7713,2.7715,2.7725,2.7734,2.7736,2.769,2.7685,2.7679,2.7671,2.7736,2.7736,2.7782,2.7783,2.7783]}]]